Date,TemperatureHighF,TemperatureAvgF,TemperatureLowF,DewpointHighF,DewpointAvgF,DewpointLowF,HumidityHigh,HumidityAvg,HumidityLow,PressureMaxIn,PressureMinIn,WindSpeedMaxMPH,WindSpeedAvgMPH,GustSpeedMaxMPH,PrecipitationSumIn
2013-2-1,64,44,35,47,39,34,98,85,46,30.27,30.23,4,0,4,0.00
2013-2-2,68,47,29,54,42,29,98,84,52,30.29,30.11,7,0,7,0.00
2013-2-3,71,53,40,51,43,32,99,76,26,30.19,30.05,10,0,10,0.00
2013-2-4,65,51,37,54,46,36,99,87,57,30.05,29.90,2,0,2,0.16
2013-2-5,71,60,52,64,58,52,99,95,79,29.96,29.85,6,0,6,0.32
2013-2-6,74,60,52,64,58,52,99,93,68,30.07,29.92,8,0,8,0.04
2013-2-7,79,64,51,65,60,50,99,88,58,29.93,29.73,14,0,14,1.69
2013-2-8,75,60,48,64,56,48,99,89,66,30.09,29.86,6,0,7,0.00
2013-2-9,69,55,45,59,51,43,98,87,68,30.17,30.01,6,0,6,0.00
2013-2-10,72,67,56,70,65,55,99,93,84,30.02,29.87,13,1,13,0.06
2013-2-11,69,62,57,69,62,57,99,98,93,30.04,29.89,8,0,8,0.48
2013-2-12,70,62,56,69,62,56,100,99,98,29.98,29.67,8,0,8,0.11
2013-2-13,67,52,40,66,51,39,99,97,87,30.00,29.70,8,0,8,0.25
2013-2-14,63,46,37,50,42,36,100,88,51,30.09,29.97,5,0,5,0.00
2013-2-15,56,37,32,50,36,32,100,98,80,30.11,30.02,2,0,2,0.00
2013-2-16,58,44,29,28,26,20,92,54,26,30.23,30.08,11,1,11,0.00
2013-2-17,58,40,26,40,32,25,98,76,33,30.31,30.18,6,0,6,0.00
2013-2-18,68,49,34,54,43,33,99,82,56,30.19,30.03,12,1,14,0.00
2013-2-20,63,48,38,41,37,28,95,71,28,30.06,29.98,4,0,4,0.00
2013-2-21,68,58,40,67,53,36,96,85,69,29.99,29.75,8,1,8,0.00
2013-2-22,70,64,58,68,61,55,99,92,61,29.90,29.78,6,0,6,2.18
2013-2-23,60,57,55,59,57,52,99,97,89,29.87,29.72,6,0,6,1.16
2013-2-24,72,59,46,61,55,46,99,87,65,29.91,29.69,6,0,6,0.35
2013-2-25,68,63,60,68,62,59,100,99,98,29.74,29.40,15,1,15,4.45
2013-2-26,64,54,47,61,46,40,99,77,48,29.85,29.45,9,0,9,0.00
2013-2-27,67,53,44,52,47,43,99,82,44,29.95,29.84,7,0,7,0.00
2013-2-28,62,49,37,47,40,32,98,74,38,30.03,29.92,7,0,7,0.00